User: anonymous   Login
Location: Makanda
(37.6176°N, 89.2090°W)
Time: 20:07:28
(UTC+00:00)
Language:

Okean 1 Rocket - Orbit

View from above orbital plane
View from above orbital plane
View from above satellite
View from above satellite

Ground track
Ground track

The orbit data is extracted from the following two-line orbital elements,

1 19275U 88056B   19326.29970566  .00000060  00000-0  44267-5 0  9990
2 19275  82.5179 219.9130 0020572 156.8500 203.3646 14.82732882694855
Epoch (UTC): 22 November 2019 07:11:34
Eccentricity: 0.0020572
inclination: 82.5179°
perigee height: 606 km
apogee height: 635 km
right ascension of ascending node: 219.9130°
argument of perigee: 156.8500°
revolutions per day: 14.82732882
mean anomaly at epoch: 203.3646°
orbit number at epoch: 69485

The dashed part of the orbit path shows where the satellite is in the earth's shadow,  

DLR